Presure
280 278 270 263 257 250 251 248 253 263 282 279 264 254 251 129 240 254 250 242 255 261 259 273 278 270 394 382 352 360 376 374 357 368 383 356 301 280 273 263 223 121 246 245
259 264 266 268 264 270 272 263 256 244 238 238 231 253 248 243 249 258 263 236 246 246 244 301 223 342 359 378 375 362 343 332 338 326 323 329 315 303 304 278 285 121 125 265
246 245 241 239 240 237 230 228 226 224 241 245 247 241 232 255 261 256 249 247 258 229 263 279 307 321 313 316 319 326 354 339 333 323 316 304 291 281 283 284 291 126 142 260
226 225 225 222 217 218 239 254 246 237 227 219 232 256 248 243 245 238 229 245 238 230 248 270 244 277 296 323 316 313 317 323 348 322 313 303 303 286 272 252 185 244 254 184
221 261 263 259 252 247 235 225 219 216 218 235 237 223 222 246 232 240 224 228 232 217 218 209 245 261 270 270 255 279 278 279 275 269 271 261 257 245 250 234 236 224 231 236
264 258 246 229 220 216 215 241 242 239 233 229 234 233 240 247 240 244 229 232 230 222 233 250 249 239 259 256 251 251 251 251 251 249 248 247 253 241 231 228 226 229 239 230
242 213 217 211 216 242 242 242 224 231 222 229 217 233 252 254 246 244 222 227 223 229 221 235 214 224 246 229 256 227 253 256 251 246 243 238 234 238 243 234 237 236 231 235
214 212 218 216 238 242 238 229 234 225 221 215 235 233 248 241 240 251 225 217 226 231 231 245 216 232 221 228 234 229 223 222 222 221 220 222 215 226 216 215 213 215 215 216
215 219 218 207 243 233 236 232 227 232 237 222 217 231 240 231 244 235 246 239 233 224 220 209 222 216 214 213 217 209 217 226 222 217 213 216 217 216 214 210 209 222 216 189
218 216 208 252 248 236 233 227 218 225 230 233 223 235 236 238 237 237 242 237 246 245 259 251 226 226 227 232 235 231 231 221 216 216 212 224 191 194 190 193 192 191 189 195
216 217 216 231 208 238 233 232 224 232 233 233 227 223 235 236 230 243 231 236 236 207 224 231 258 246 247 245 243 241 234 229 227 194 193 192 190 191 187 192 201 204 210 203
222 219 215 226 238 247 240 237 236 236 238 227 236 245 226 217 207 217 214 217 221 218 213 211 205 206 217 212 198 184 183 187 197 199 198 198 196 209 209 210 201 229 234 227
216 212 218 239 264 251 248 217 236 242 233 235 226 229 212 207 206 205 205 210 210 210 210 205 204 204 206 213 213 212 210 211 210 209 210 211 212 203 196 197 234 226 226 217
225 217 215 259 262 257 254 241 228 247 223 238 237 211 249 231 200 203 207 208 213 214 212 213 205 211 214 216 218 216 217 215 212 213 211 198 194 228 244 233 226 225 212 209
221 217 225 239 260 250 246 239 243 239 234 228 233 232 251 251 244 227 215 217 220 226 223 217 218 216 224 218 224 221 212 198 194 195 206 231 228 238 235 227 222 204 203 214
229 224 220 212 254 255 250 241 232 235 231 224 219 235 207 205 208 214 223 226 231 228 228 228 226 221 226 208 187 190 195 208 219 230 226 220 232 247 234 217 202 204 212 204
230 219 216 225 226 251 239 225 237 246 230 210 218 202 224 239 234 236 237 233 235 234 239 244 238 201 190 192 198 220 227 227 226 223 222 224 238 243 233 220 211 212 204 212
215 225 220 224 237 237 240 230 241 202 232 215 216 239 247 255 258 269 265 244 252 247 211 211 201 192 201 215 223 226 227 229 224 218 215 226 239 243 234 209 216 202 219 213
227 215 227 217 227 251 260 220 182 207 246 239 235 241 247 242 246 236 220 210 213 212 207 197 194 200 208 223 238 228 230 226 223 222 223 235 242 226 217 212 215 210 221 229
222 217 223 221 220 242 266 247 247 227 240 225 258 224 236 236 216 214 211 213 210 207 204 199 194 210 214 221 229 224 225 224 221 225 227 229 220 212 215 180 119 227 226 242
226 222 230 220 223 234 264 229 226 218 234 222 241 248 234 237 229 193 214 212 217 212 202 201 208 213 233 217 230 227 223 223 223 227 232 163 198 216 199 213 223 230 240 249
219 232 198 199 220 233 248 263 219 222 200 222 226 229 198 193 221 211 214 209 212 203 208 205 210 212 218 224 225 228 225 225 225 231 199 202 201 202 222 219 238 240 248 253
230 225 216 237 219 232 243 236 237 227 223 233 232 247 215 224 223 222 208 206 204 206 207 210 212 220 227 223 225 224 226 216 180 215 209 205 219 218 230 236 242 250 252 277
236 236 231 225 229 227 227 235 249 233 220 225 224 229 194 206 225 211 198 204 208 211 207 211 225 226 222 222 223 225 172 209 203 206 218 218 231 234 241 242 248 253 277 279
268 261 252 245 244 247 218 235 241 230 235 220 225 206 231 221 217 219 210 211 214 218 217 234 236 234 230 208 176 202 212 215 214 226 223 236 232 246 238 249 256 278 280 271
280 259 261 275 267 264 258 239 214 231 230 233 223 226 227 215 216 219 220 216 216 222 229 235 218 200 195 204 215 212 211 223 227 219 227 235 243 240 252 257 281 286 290 282
263 272 282 272 256 255 242 238 257 247 224 222 226 225 220 218 217 217 221 223 226 227 209 204 219 223 218 206 221 220 219 226 232 235 240 244 251 253 275 282 253 279 284 272
Wind_Speed
33 38 43 47 47 45 47 48 50 48 43 35 35 36 38 23 44 42 45 51 49 51 59 60 67 57 47 28 31 30 28 35 41 44 48 60 79 77 77 74 65 50 65 66
27 29 30 30 32 35 35 35 30 30 29 31 34 32 33 36 35 35 25 27 40 46 51 33 35 28 25 14 19 26 23 29 30 33 30 41 44 48 49 60 57 52 53 61
26 25 25 26 26 24 26 29 27 29 27 26 26 26 30 24 25 21 24 27 25 38 25 22 24 18 23 27 25 24 3 21 20 26 28 34 34 34 35 39 40 52 53 37
23 23 22 23 25 26 26 25 22 23 24 27 25 19 21 23 22 23 28 20 26 34 27 19 15 33 32 25 31 29 30 27 9 19 23 23 20 19 20 18 31 17 17 38
21 26 27 26 25 24 21 22 22 24 24 20 16 20 24 20 25 21 24 21 22 20 22 25 23 22 37 40 23 49 48 47 46 41 40 36 33 27 20 18 17 27 25 26
27 26 26 21 18 17 20 23 20 20 17 15 18 19 19 15 21 18 18 16 18 18 23 23 18 24 20 22 20 28 33 35 38 35 32 26 30 30 25 20 24 26 29 32
24 18 16 14 16 21 21 19 18 18 13 13 11 15 11 6 12 13 13 14 16 15 15 18 15 17 16 22 17 7 23 26 27 23 19 16 12 12 12 19 20 25 27 29
18 16 16 16 22 22 20 19 18 16 17 12 13 11 9 5 8 9 15 12 15 16 16 16 8 17 16 19 18 15 15 14 13 11 8 7 3 3 6 10 15 20 25 30
16 14 15 16 22 20 21 17 15 19 18 14 11 15 11 10 9 11 14 18 15 15 11 13 13 11 10 9 9 11 8 10 8 6 7 8 10 13 16 17 20 29 33 32
15 14 15 19 19 18 21 17 16 17 19 19 11 14 15 12 12 12 12 12 15 17 20 18 15 14 9 11 11 9 8 9 10 10 11 13 12 16 19 22 26 30 34 38
16 16 18 13 17 21 22 22 19 21 19 17 14 11 15 13 11 15 7 10 10 3 8 11 19 14 14 15 16 14 11 10 11 12 14 16 19 21 25 29 33 37 42 44
17 19 21 21 19 25 26 23 23 24 21 12 17 19 12 7 5 4 3 4 6 8 7 3 2 5 10 9 12 16 16 16 15 17 20 22 25 30 33 36 39 39 39 43
20 22 22 16 21 23 23 26 23 20 17 15 12 12 12 9 10 9 11 9 9 9 10 10 11 12 13 17 18 19 20 21 23 25 27 31 34 35 38 42 36 40 41 43
23 23 24 14 17 18 18 25 20 20 15 13 15 15 18 15 16 17 16 15 15 13 14 15 16 17 19 20 21 22 24 25 28 30 33 35 38 38 38 38 40 41 44 47
25 24 23 16 16 21 21 25 22 18 15 12 13 14 19 17 13 15 19 18 18 18 18 19 20 21 23 24 24 25 27 31 34 37 39 36 37 41 41 41 42 43 47 53
28 24 25 21 18 22 24 23 20 18 17 15 14 17 16 18 21 22 19 19 19 21 22 23 23 24 24 25 32 34 36 37 37 35 37 39 45 43 43 42 44 48 52 57
29 27 29 21 17 22 24 24 22 20 19 20 18 22 18 19 20 19 19 19 20 21 24 24 24 26 32 34 36 35 36 36 35 38 40 44 47 45 45 47 49 52 56 62
31 29 31 25 18 21 26 27 23 23 21 23 21 19 19 19 18 16 15 21 21 21 25 25 28 34 34 35 37 37 37 37 38 40 41 46 49 48 48 49 53 56 62 66
33 35 30 29 22 22 28 27 28 26 22 18 18 17 17 17 19 21 25 27 25 26 27 32 35 35 35 37 36 38 39 40 41 44 47 51 51 47 49 52 58 61 68 75
37 38 33 31 29 24 29 28 24 27 21 27 24 25 19 20 27 29 31 30 30 30 31 34 38 36 38 39 40 41 42 44 45 47 49 50 50 51 55 51 40 71 74 82
39 40 35 36 32 28 30 32 31 31 26 31 20 25 22 21 26 37 35 36 33 32 36 38 37 39 40 44 44 44 46 48 49 52 54 49 53 58 59 65 71 76 81 88
42 41 37 37 36 32 32 36 37 36 34 31 29 31 37 42 33 38 37 38 36 39 38 40 41 42 45 47 48 47 50 52 53 55 53 56 57 61 68 70 80 82 88 92
45 41 41 40 42 37 37 39 41 39 37 31 31 30 37 36 37 38 43 42 42 43 43 42 44 46 47 48 49 51 53 53 54 55 56 59 67 69 73 78 82 88 90 85
48 46 41 42 42 40 42 42 42 44 43 39 38 38 42 45 40 43 46 46 46 45 47 47 47 48 49 50 52 54 53 53 55 59 64 67 71 75 81 83 87 92 82 81
50 51 53 51 49 47 48 46 46 46 44 44 42 46 40 41 42 43 48 49 48 48 49 48 48 48 50 53 56 54 55 58 61 67 69 76 73 83 80 87 91 81 79 77
45 46 48 49 52 50 49 48 46 48 46 45 46 44 44 48 48 49 48 50 51 53 53 53 52 52 52 52 56 58 61 66 69 67 73 78 84 81 87 88 79 77 76 75
40 42 45 49 49 48 49 48 49 49 49 49 49 49 51 51 51 52 53 54 54 54 54 54 56 56 55 55 61 63 66 71 76 78 82 83 86 88 80 76 71 73 74 71
Wind_Direction
197 209 220 227 229 232 235 239 245 252 253 247 250 256 259 252 263 271 275 277 281 289 289 293 293 290 307 273 265 261 262 234 241 240 234 239 253 253 254 257 263 281 259 263
185 193 198 205 213 220 225 229 233 235 245 243 248 257 260 266 275 276 274 273 286 294 301 313 298 330 6 309 268 249 237 235 232 234 230 223 225 236 238 251 251 278 285 258
185 186 190 198 206 210 215 224 228 235 237 247 251 257 263 272 267 274 274 284 287 303 317 357 338 16 40 43 47 42 68 218 205 201 206 212 222 237 238 240 243 274 279 251
186 192 199 205 211 219 216 216 220 227 238 252 259 261 271 270 274 268 274 286 300 312 322 37 20 56 57 53 63 65 77 73 180 190 185 182 171 146 150 168 250 221 239 267
194 194 192 194 196 200 205 224 232 240 248 257 261 268 279 257 266 256 269 291 308 314 331 317 356 67 73 73 61 83 84 89 95 98 102 111 116 128 136 187 204 228 246 239
189 178 184 191 205 219 231 222 228 240 253 265 274 276 262 242 249 246 265 280 298 310 323 331 355 353 68 77 85 92 89 91 96 105 110 117 123 144 190 197 230 234 238 248
179 195 200 215 225 221 221 225 231 241 250 273 268 267 274 282 258 232 265 283 290 308 318 331 354 12 28 22 64 56 88 100 103 106 111 117 121 156 191 212 230 242 264 266
198 207 214 230 213 214 219 231 235 249 259 245 281 288 282 300 273 242 260 283 297 306 322 311 352 13 19 20 29 43 57 66 66 65 69 59 337 283 258 258 268 274 280 284
214 217 231 245 222 229 222 224 242 253 256 272 261 288 280 283 285 278 258 267 285 293 306 321 322 337 356 8 1 356 19 40 37 20 359 340 324 314 310 311 307 293 287 288
219 231 239 221 230 224 228 229 234 251 257 263 278 287 292 288 288 285 288 292 283 293 300 291 301 316 325 331 335 341 357 347 334 323 336 306 307 303 303 305 299 294 289 288
226 231 241 241 231 232 236 236 238 248 257 261 265 271 282 285 287 279 284 304 294 287 341 329 295 288 291 301 313 325 339 340 335 320 312 305 298 294 290 295 299 298 301 300
230 239 253 248 244 236 238 243 251 250 253 259 271 272 261 250 234 255 278 301 302 313 315 338 314 315 322 316 308 305 299 294 303 305 304 305 303 304 302 301 298 303 304 303
234 236 246 263 238 242 238 251 246 251 250 255 237 253 241 246 263 255 258 265 270 279 287 293 298 301 308 312 311 314 316 310 302 301 308 309 305 301 298 299 300 299 301 299
228 234 247 258 235 232 234 238 244 255 236 255 255 243 253 255 259 267 271 274 275 278 284 284 292 293 293 296 298 301 302 306 308 305 302 301 298 301 304 298 299 302 302 306
228 232 239 251 232 224 226 239 244 247 251 240 252 257 258 259 259 259 269 273 277 276 276 283 287 292 292 300 301 304 306 304 304 302 299 299 303 310 304 303 304 304 306 308
225 226 236 242 244 229 226 234 241 244 249 244 239 255 249 253 260 263 265 271 271 274 277 278 281 286 292 301 300 302 302 300 299 303 305 307 312 307 305 307 306 308 309 305
224 227 235 236 254 237 244 245 244 243 249 236 247 248 263 265 265 265 266 269 273 276 273 269 278 292 295 298 301 300 297 301 304 307 310 312 314 310 307 309 307 308 305 308
225 228 234 237 253 252 242 238 244 254 241 253 255 263 269 270 266 271 263 264 266 271 278 284 291 294 300 304 301 301 303 303 304 308 312 314 315 314 312 308 310 302 312 307
223 229 235 238 247 260 240 246 262 256 252 240 249 264 269 270 269 267 271 269 271 277 286 289 292 295 299 304 296 302 301 305 308 311 311 315 316 313 312 310 312 308 314 319
226 229 236 236 238 257 247 240 241 241 249 239 281 249 257 261 265 262 264 267 273 278 282 285 288 295 303 307 301 302 305 307 309 310 312 314 314 313 315 312 304 318 317 324
228 230 234 237 238 250 252 237 239 247 248 243 263 282 250 251 249 283 262 268 270 277 282 286 292 299 299 304 301 301 304 307 309 311 313 306 311 316 304 312 315 318 325 326
234 233 246 250 244 249 254 249 248 247 264 257 247 265 280 286 263 268 268 276 277 282 283 286 292 296 301 300 302 303 305 306 308 311 306 307 305 306 316 314 323 324 326 325
235 234 235 242 242 246 253 247 245 249 249 251 254 267 274 256 260 265 274 276 278 280 283 288 293 297 298 300 301 303 304 303 293 312 309 306 313 312 318 321 324 324 324 324
235 238 238 240 242 242 246 250 248 249 253 251 254 258 280 276 266 273 279 279 281 282 285 288 293 295 296 298 300 302 296 306 301 305 310 310 318 319 322 323 323 323 322 324
237 241 245 249 251 250 251 249 249 254 254 260 255 269 262 264 267 267 272 274 278 283 286 291 291 291 293 294 294 295 304 307 306 311 311 318 316 321 320 321 320 321 323 322
239 241 242 243 246 248 248 251 260 257 258 260 263 264 265 268 270 272 276 279 282 285 287 289 289 289 287 294 302 300 300 307 310 307 314 316 318 319 319 319 320 323 322 325
247 248 244 244 248 249 251 252 255 255 258 261 263 265 267 270 272 275 277 280 283 286 284 285 292 296 297 292 301 302 304 308 312 313 314 316 315 316 315 316 317 321 322 320